www.pogodaiklimat.ru

Погода и климат >> Архив погоды >> Канада >> Mould Bay Cs


ПОГОДА в Mould Bay Cs

  • Прогноз погоды в Mould Bay Cs
  • Монитор погоды в Mould Bay Cs
  • Климат города

АРХИВ ПОГОДЫ в Mould Bay Cs

Время (UTC), дата Ветер
(напр.,м/с)
 
Видим.   Явления Облачность Т
(С)
Тd
(С)
f
(%)
Тe
(С)
Тes
(С)
Комфортность P
(гПа)
Po
(гПа)
Тmin
(С)
Tmax
(С)
R
(мм)
R24
(мм)
S
(см)
18 11.12 Ю 1 н/о н/о -36.5 -40.1 69 -41 -41 опасность
обморожения
997.9 996.2 -37.3 -35.7
21 11.12 В 2 н/о н/о -35.0 -38.6 70 -42 -42 опасность
обморожения
998.4 996.7
00 12.12 СЗ 5 н/о н/о -31.8 -35.0 73 -45 -45 опасность
обморожения
998.5 996.8 -37.3 -31.4
03 12.12 С 8 н/о н/о -31.5 -34.6 74 -48 -48 опасность
обморожения
998.2 996.5
06 12.12 ЮВ 3 н/о н/о -31.8 -35.0 73 -41 -41 опасность
обморожения
999.5 997.8 -37.3 -30.5 2
09 12.12 СВ 2 н/о н/о -30.5 -33.5 75 -37 -37 опасность
обморожения
1000.4 998.7
12 12.12 СВ 3 н/о н/о -30.4 -33.4 75 -40 -40 опасность
обморожения
1000.8 999.1 -32.2 -30.5
18 12.12 С 3 н/о н/о -30.7 -33.5 76 -41 -41 опасность
обморожения
1002.9 1001.2
03 13.12 СВ 2 н/о н/о -30.1 -33.0 76 -38 -38 опасность
обморожения
1006.8 1005.1
15 13.12 В 1 н/о н/о -34.0 -37.3 72 -39 -39 опасность
обморожения
1010.9 1009.2
18 13.12 В 1 н/о н/о -28.8 -31.6 77 -33 -33 опасность
обморожения
1010.6
21 13.12 С 2 н/о н/о -30.2 -33.2 75 -36 -36 опасность
обморожения
1011.9
00 14.12 ЮВ 1 н/о н/о -30.9 -34.0 74 -35 -35 опасность
обморожения
1012.8 -28.0
03 14.12 н/о н/о -34.5 -38.0 70 1015.3 1013.6
06 14.12 СЗ 1 н/о н/о -33.8 -37.1 72 -35 -35 опасность
обморожения
1015.8 1014.1
09 14.12 В 1 н/о н/о -32.6 -35.9 72 -37 -37 опасность
обморожения
1016.7 1015.0
12 14.12 СВ 2 н/о н/о -30.4 -33.5 74 -38 -38 опасность
обморожения
1017.3 1015.6
18 14.12 СВ 1 н/о н/о -31.4 -34.6 73 -36 -36 опасность
обморожения
1018.1 1016.4
21 14.12 СВ 1 н/о н/о -34.0 -37.4 71 -39 -39 опасность
обморожения
1018.8 1017.1
00 15.12 СВ 1 н/о н/о -35.9 -39.5 69 -41 -41 опасность
обморожения
1019.2 1017.5
03 15.12 В 1 н/о н/о -35.4 -38.9 70 -40 -40 опасность
обморожения
1019.3 1017.6
06 15.12 штиль 0 н/о н/о -34.7 -38.2 70 -35 -35 опасность
обморожения
1019.5 1017.8
09 15.12 СВ 1 н/о н/о -36.3 -40.0 68 -38 -38 опасность
обморожения
1020.4 1018.7
12 15.12 СВ 1 н/о н/о -36.9 -40.7 68 -39 -39 опасность
обморожения
1021.1 1019.3 -37.0
15 15.12 Ю 1 н/о н/о -37.0 -40.7 68 -39 -39 опасность
обморожения
1021.3 1019.5
18 15.12 штиль 0 н/о н/о -38.3 -42.2 67 -38 -38 опасность
обморожения
1021.9 1020.1 -38.3 -34.7
21 15.12 штиль 0 н/о н/о -37.9 -41.8 67 -38 -38 опасность
обморожения
1022.6 1020.8
00 16.12 В 1 н/о н/о -38.9 -42.9 66 -44 -44 опасность
обморожения
1023.4 1021.6 -39.0 -36.1
03 16.12 СВ 2 н/о н/о -37.2 -40.9 68 -44 -44 опасность
обморожения
1023.4 1021.6
06 16.12 В 1 н/о н/о -37.7 -41.5 67 -39 -39 опасность
обморожения
1023.8 1022.0 -39.1 -34.7
09 16.12 СВ 1 н/о {осадки} н/о -37.9 -41.7 67 -43 -43 опасность
обморожения
1024.4 1022.6 0.2
12 16.12 СВ 1 н/о {осадки} н/о -37.1 -40.9 68 -39 -39 опасность
обморожения
1024.1 1022.3 -39.1 -34.7 0.2
15 16.12 Ю 2 н/о н/о -33.9 -37.4 70 -42 -42 опасность
обморожения
1023.6 1021.8
18 16.12 штиль 0 н/о н/о -35.5 -39.2 69 -36 -36 опасность
обморожения
1023.5 1021.7 -39.1 -32.6
21 16.12 Ю 1 н/о н/о -33.1 -36.5 71 -35 -35 опасность
обморожения
1023.3 1021.5
00 17.12 ЮЗ 3 н/о н/о -31.8 -35.0 73 -41 -41 опасность
обморожения
1022.3 1020.6 -38.5 -29.9
03 17.12 ЮВ 3 н/о н/о -29.6 -32.6 75 -38 -38 опасность
обморожения
1020.1 1018.4
06 17.12 Ю 3 н/о н/о -27.7 -30.3 78 -36 -36 опасность
обморожения
1018.2 1016.5 -38.5 -27.3
09 17.12 Ю 2 н/о н/о -27.2 -29.8 78 -33 -33 опасность
обморожения
1016.8 1015.1
12 17.12 В 6 н/о н/о -25.4 -27.8 80 -38 -38 опасность
обморожения
1014.5 1012.8 -32.8 -27.3
15 17.12 В 7 н/о н/о -22.7 -24.8 83 -35 -35 опасность
обморожения
1011.8 1010.1
18 17.12 В 5 н/о н/о -20.0 -21.9 85 -30 -30 1010.9 1009.2 -37.4 -19.4
21 17.12 ЮВ 6 н/о н/о -20.1 -21.9 85 -31 -31 опасность
обморожения
1010.0 1008.3
00 18.12 В 3 н/о н/о -15.9 -17.4 88 -22 -22 1009.9 1008.2 -29.2 -15.1
03 18.12 ЮВ 7 н/о н/о -14.4 -15.7 90 -24 -24 1009.3 1007.6
06 18.12 ЮВ 4 н/о н/о -16.2 -17.6 89 -24 -24 1009.9 1008.2 -29.2 -13.8 5
09 18.12 ЮВ 8 н/о н/о -15.5 -16.9 89 -27 -27 1009.9 1008.3
12 18.12 ЮЗ 3 н/о н/о -16.3 -17.8 88 -23 -23 1010.7 1009.1 -17.6 -13.8

 

Местоположение метеостанции Mould Bay Cs (Канада): широта 76.23 долгота -119.30 высота над уровнем моря 12 м.

В архиве по умолчанию представлена погода в Mould Bay Cs за последнюю неделю. Архивные данные за месяц целиком и за предыдущие месяцы, начиная с января 2011 года, Вы можете получить, выбрав интересующий диапазон дат из раскрывающегося списка и нажав кнопку "Ввод!".


*Определитесь, кто Вы:
робот инопланетянин человек

Внимание! Время в таблицах - всемирное. Для получения местного времени необходимо прибавить поправку, которая в Mould Bay Cs равна -7 ч.

Смотрите также архив погоды в соседних городах и на ближайших метеорологических станциях:

Погода в Aulvik Ntl Park (Канада) (234 км)
Погода в Isachsen (aut) (Канада) (472 км)
Погода в Stefansson Island (Канада) (488 км)
Погода в Sachs Harbour (Канада) (503 км)
Погода в Sachs Harbour (Канада) (504 км)
Погода в Chris Hadfield (Канада) (534 км)
Погода в Holman (Канада) (611 км)
Погода в Resolute Airport (Канада) (693 км)
Погода в Resolute Cs (Канада) (694 км)
Погода в Cape Parry Airport (Канада) (695 км)

Пояснения к столбцам:

Ветер - указаны скорость ветра в м/с - средняя за 10 мин, порывы в срок и между сроками (в фигурных скобках) и направление, откуда дует ветер: С - северный, СВ - северо-восточный, В - восточный, ЮВ - юго-восточный, Ю - южный, ЮЗ - юго-западный, З - западный, СЗ - северо-западный.
Видимость - горизонтальная дальность видимости в метрах или километрах. При видимости от 1 до 10 км при отсутствии осадков обычно наблюдается дымка, при ухудшении видимости до 1 км и менее - туман. В сухую погоду видимость может ухудшаться дымом, пылью или мглою.
Явления - указаны атмосферные явления, наблюдавшиеся в срок или в последний час перед сроком; фигурными скобками обозначены явления, наблюдавшиеся между сроками (за 1-3 часа до срока); квадратными скобками обозначены град или гололедные отложения с указанием их диаметра в мм.
Облачность - указаны через наклонную черту общая и нижняя облачность в баллах и высота нижней границы облаков в метрах; квадратными скобками обозначены формы облаков: Ci - перистые, Cs - перисто-слоистые, Cc - перисто-кучевые, Ac - высококучевые, As - высокослоистые, Sc - слоисто-кучевые, Ns - слоисто-дождевые, Cu - кучевые, Cb - кучево-дождевые. Подробнее классификацию облаков см. в Атласе облаков (PDF).
T - Температура воздуха - температура, измеренная на высоте 2 м над землей.
Td - Температура точки росы - температура, при понижении до которой содержащийся в воздухе водяной пар достигнет насыщения.
f - Относительная влажность воздуха - влажноcть воздуха, измеренная на высоте 2 м над землей.
Te - Эффективная температура - температура, которую ощущает одетый по сезону человек в тени. Характеристика душности погоды. При расчете учитывается влияние влажности воздуха и скорости ветра на теплоощущения человека.
Tes - Эффективная температура на солнце - температура, которую ощущает человек, с поправкой на солнечный нагрев. Характеристика знойности погоды. Зависит от высоты солнца над горизонтом, облачности и скорости ветра. Ночью, в пасмурную погоду, а также при ветре 12 м/с и более поправка равна нулю.
P - Атмосферное давление - приведенное к уровню моря атмосферное давление.
Po - Атмосферное давление - измеренное на уровне метеостанции атмосферное давление.
Tmin - Минимальная температура - минимум температуры воздуха на высоте 2 м над землей.
Tmax - Максимальная температура - максимум температуры воздуха на высоте 2 м над землей.
R - Количество осадков - Количество выпавших осадков за период времени, мм. При наведении курсора мыши на число - период времени, за который выпало указанное количество осадков.
R24 - Количество осадков - Количество выпавших осадков за 24 часа, мм.
S - Снежный покров - Высота снежного покрова, см. При наведении курсора мыши на число - состояние снежного покрова и степень покрытия местности в баллах.